User: anonymous   Login
Location: Blandford
(50.8667°N, 2.1667°W)
Time: 23:50:58
(UTC+00:00)
Language:

STARLINK-1216 - Orbit

View from above orbital plane
View from above orbital plane
View from above satellite
View from above satellite

Ground track
Ground track

The orbit data is extracted from the following two-line orbital elements,

1 45185U 20012H   20188.83334491  .00029853  00000-0  20610-2 0  9990
2 45185  53.0016 347.5419 0001518 103.7357 131.6587 15.05550259 21926
Epoch (UTC): 06 July 2020 20:00:01
Eccentricity: 0.0001518
inclination: 53.0016°
perigee height: 549 km
apogee height: 551 km
right ascension of ascending node: 347.5419°
argument of perigee: 103.7357°
revolutions per day: 15.05550259
mean anomaly at epoch: 131.6587°
orbit number at epoch: 2192

The dashed part of the orbit path shows where the satellite is in the earth's shadow,  

DLR